Weather History for South St. Paul, MN

Change the Weather History Date:

Wednesday, March 20, 2013

  Actual Average (KMSP) Record (KMSP)
Temperature  
Mean Temperature 15 °F 34 °F  
Max Temperature 22 °F 43 °F 66 °F (1938)
Min Temperature 8 °F 26 °F -9 °F (1965)
Degree Days  
Heating Degree Days 50 30  
Month to date heating degree days 694  
Since 1 July heating degree days 6484  
Cooling Degree Days 0 0  
Month to date cooling degree days 0  
Year to date cooling degree days 0  
Moisture  
Dew Point 1 °F    
Average Humidity 53    
Maximum Humidity 62    
Minimum Humidity 45    
Precipitation  
Precipitation 0.00 in 0.07 in 0.86 in (1921)
Month to date precipitation 1.13  
Year to date precipitation 2.80  
Snow  
Snow 0.00 in 0.30 in 7.00 in (1886)
Month to date snowfall 7.7  
Since 1 July snowfall 49.4  
Snow Depth -    
Sea Level Pressure  
Sea Level Pressure 30.15 in    
Wind  
Wind Speed 12 mph (NW)    
Max Wind Speed 21 mph    
Max Gust Speed 26 mph    
Visibility 10 miles    
Events      
T = Trace of Precipitation, MM = Missing Value Source: NWS Daily Summary

Daily Weather History Graph

Daily Weather History Graph

Search for Another Location

Airport:

Trip Planner

Search our weather history database for the weather conditions in past years. The results will help you decide how hot, cold, wet, or windy it might be!

Date:

Astronomy

Mar. 20, 2013 Rise Set
Actual Time 7:14 AM CDT 7:24 PM CDT
Civil Twilight 6:45 AM CDT 7:54 PM CDT
Nautical Twilight 6:11 AM CDT 8:28 PM CDT
Astronomical Twilight 5:36 AM CDT 9:03 PM CDT
Moon 12:47 PM CDT (3/20) 3:08 AM CDT (3/20)
Length of Visible Light 13h 08m
Length of Day
12h 10m
First Quarter, 59% of the Moon is Illuminated
Mar 20
First Quarter
Mar 27
Full
Apr 2
Last Quarter
Apr 10
New
Apr 18
First Quarter

Hourly Weather History & Observations

Time (CDT) Temp. Windchill Dew Point Humidity Pressure Visibility Wind Dir Wind Speed Gust Speed Precip Events Conditions
12:32 AM 12.0 °F -1.3 °F -2.7 °F 52% 30.18 in 10.0 mi NW 10.4 mph 18.4 mph N/A   Clear
12:52 AM 12.0 °F -5.1 °F -2.6 °F 52% 30.18 in 10.0 mi NW 17.3 mph 24.2 mph N/A   Clear
1:12 AM 11.7 °F -3.2 °F -2.4 °F 53% 30.18 in 10.0 mi NW 12.7 mph 21.9 mph N/A   Clear
1:32 AM 11.1 °F -0.6 °F -2.4 °F 55% 30.19 in 10.0 mi NW 8.1 mph 16.1 mph N/A   Clear
1:52 AM 10.9 °F -4.1 °F -2.2 °F 56% 30.19 in 10.0 mi NW 12.7 mph 17.3 mph N/A   Clear
2:12 AM 10.9 °F -2.6 °F -2.2 °F 56% 30.19 in 10.0 mi NW 10.4 mph 19.6 mph N/A   Clear
2:32 AM 10.4 °F -4.1 °F -2.2 °F 57% 30.19 in 10.0 mi NW 11.5 mph 18.4 mph N/A   Clear
2:53 AM 10.4 °F -4.1 °F -2.2 °F 57% 30.19 in 10.0 mi NW 11.5 mph 18.4 mph N/A   Clear
3:12 AM 10.4 °F -4.1 °F -2.2 °F 57% 30.18 in 10.0 mi NW 11.5 mph 16.1 mph N/A   Clear
3:32 AM 10.2 °F -1.7 °F -2.2 °F 57% 30.18 in 10.0 mi WNW 8.1 mph - N/A   Clear
3:52 AM 10.0 °F -4.5 °F -2.2 °F 58% 30.18 in 10.0 mi WNW 11.5 mph 18.4 mph N/A   Clear
4:12 AM 9.5 °F -5.2 °F -2.2 °F 59% 30.18 in 10.0 mi NW 11.5 mph 18.4 mph N/A   Clear
4:32 AM 9.9 °F -6.7 °F -2.4 °F 58% 30.17 in 10.0 mi NW 15.0 mph - N/A   Clear
4:52 AM 9.5 °F -4.4 °F -2.6 °F 58% 30.17 in 10.0 mi WNW 10.4 mph 16.1 mph N/A   Clear
5:12 AM 9.3 °F -5.4 °F -2.6 °F 59% 30.18 in 10.0 mi WNW 11.5 mph - N/A   Clear
5:32 AM 8.6 °F -5.5 °F -2.6 °F 61% 30.19 in 10.0 mi WNW 10.4 mph 16.1 mph N/A   Clear
5:52 AM 8.2 °F -5.1 °F -2.6 °F 61% 30.19 in 10.0 mi WNW 9.2 mph - N/A   Clear
6:12 AM 8.4 °F -4.9 °F -2.4 °F 62% 30.19 in 10.0 mi WNW 9.2 mph 18.4 mph N/A   Clear
6:32 AM 8.2 °F -8.2 °F -2.6 °F 61% 30.19 in 10.0 mi NW 13.8 mph - N/A   Clear
6:52 AM 8.4 °F -5.7 °F -2.4 °F 62% 30.20 in 10.0 mi WNW 10.4 mph 16.1 mph N/A   Clear
7:12 AM 8.1 °F -3.2 °F -2.6 °F 62% 30.20 in 10.0 mi WNW 6.9 mph - N/A   Clear
7:32 AM 8.1 °F -5.3 °F -2.6 °F 62% 30.20 in 10.0 mi WNW 9.2 mph - N/A   Clear
7:52 AM 8.2 °F -3.0 °F -2.7 °F 61% 30.20 in 10.0 mi WNW 6.9 mph - N/A   Clear
8:12 AM 8.4 °F -5.7 °F -2.7 °F 61% 30.20 in 10.0 mi WNW 10.4 mph 17.3 mph N/A   Clear
8:32 AM 8.8 °F -6.8 °F -2.6 °F 60% 30.19 in 10.0 mi WNW 12.7 mph - N/A   Clear
8:52 AM 9.9 °F -6.1 °F -2.6 °F 57% 30.19 in 10.0 mi WNW 13.8 mph 21.9 mph N/A   Clear
9:12 AM 10.9 °F -3.4 °F -2.2 °F 56% 30.19 in 10.0 mi NW 11.5 mph 18.4 mph N/A   Clear
9:32 AM 11.8 °F -6.7 °F -2.0 °F 54% 30.18 in 10.0 mi NW 20.7 mph 26.5 mph N/A   Clear
9:52 AM 12.2 °F -3.7 °F -1.7 °F 54% 30.18 in 10.0 mi NW 15.0 mph 21.9 mph N/A   Clear
10:12 AM 12.7 °F -2.5 °F -1.7 °F 53% 30.18 in 10.0 mi NW 13.8 mph 23.0 mph N/A   Clear
10:32 AM 13.3 °F -2.4 °F -1.1 °F 53% 30.17 in 10.0 mi NW 15.0 mph 24.2 mph N/A   Clear
10:52 AM 13.8 °F -2.7 °F -0.6 °F 53% 30.17 in 10.0 mi WNW 17.3 mph 24.2 mph N/A   Clear
11:12 AM 14.9 °F -0.8 °F -0.0 °F 52% 30.17 in 10.0 mi WNW 16.1 mph 24.2 mph N/A   Clear
11:33 AM 15.6 °F 1.2 °F 0.3 °F 51% 30.16 in 10.0 mi WNW 13.8 mph 24.2 mph N/A   Clear
11:52 AM 16.3 °F 1.0 °F 0.9 °F 51% 30.16 in 10.0 mi WNW 16.1 mph 20.7 mph N/A   Clear
12:10 PM 17.1 °F 0.1 °F 1.4 °F 50% 30.15 in 10.0 mi WNW 20.7 mph 26.5 mph N/A   Clear
12:32 PM 17.6 °F 3.7 °F 1.8 °F 50% 30.15 in 10.0 mi NW 13.8 mph 25.3 mph N/A   Clear
12:52 PM 18.1 °F 4.4 °F 2.8 °F 51% 30.14 in 10.0 mi NW 13.8 mph 24.2 mph N/A   Clear
1:12 PM 18.3 °F 4.1 °F 2.5 °F 50% 30.14 in 10.0 mi NNW 15.0 mph 24.2 mph N/A   Clear
1:32 PM 18.9 °F 5.9 °F 2.5 °F 49% 30.13 in 10.0 mi NW 12.7 mph 20.7 mph N/A   Clear
1:52 PM 19.2 °F 3.4 °F 2.7 °F 49% 30.13 in 10.0 mi NW 19.6 mph 24.2 mph N/A   Clear
2:12 PM 19.4 °F 5.0 °F 2.7 °F 48% 30.12 in 10.0 mi WNW 16.1 mph 24.2 mph N/A   Clear
2:32 PM 19.8 °F 5.4 °F 3.2 °F 49% 30.12 in 10.0 mi NW 16.1 mph 21.9 mph N/A   Clear
2:52 PM 20.3 °F 5.7 °F 3.6 °F 48% 30.11 in 10.0 mi NW 17.3 mph 23.0 mph N/A   Clear
3:12 PM 20.8 °F 9.7 °F 3.7 °F 48% 30.11 in 10.0 mi NW 10.4 mph 19.6 mph N/A   Clear
3:33 PM 21.0 °F 7.6 °F 3.7 °F 47% 30.11 in 10.0 mi NW 15.0 mph 23.0 mph N/A   Clear
3:52 PM 21.0 °F 8.1 °F 3.4 °F 47% 30.11 in 10.0 mi NNW 13.8 mph 21.9 mph N/A   Clear
4:12 PM 21.2 °F 7.3 °F 3.2 °F 46% 30.10 in 10.0 mi NW 16.1 mph 23.0 mph N/A   Clear
4:32 PM 21.2 °F 8.3 °F 3.2 °F 46% 30.10 in 10.0 mi NW 13.8 mph - N/A   Clear
4:52 PM 21.6 °F 9.9 °F 3.4 °F 46% 30.10 in 10.0 mi WNW 11.5 mph 17.3 mph N/A   Clear
5:12 PM 21.7 °F 10.2 °F 3.4 °F 45% 30.10 in 10.0 mi WNW 11.5 mph 19.6 mph N/A   Clear
5:32 PM 21.9 °F 8.7 °F 3.6 °F 45% 30.10 in 10.0 mi WNW 15.0 mph 19.6 mph N/A   Clear
5:52 PM 22.1 °F 11.3 °F 3.7 °F 45% 30.10 in 10.0 mi WNW 10.4 mph - N/A   Clear
6:13 PM 21.9 °F 11.0 °F 3.9 °F 46% 30.10 in 10.0 mi WNW 10.4 mph 18.4 mph N/A   Clear
6:32 PM 21.4 °F 9.7 °F 3.0 °F 45% 30.10 in 10.0 mi WNW 11.5 mph - N/A   Clear
6:52 PM 21.2 °F 9.5 °F 3.2 °F 46% 30.11 in 10.0 mi NW 11.5 mph 18.4 mph N/A   Clear
7:13 PM 20.8 °F 10.4 °F 3.2 °F 47% 30.10 in 10.0 mi WNW 9.2 mph - N/A   Clear
7:32 PM 20.3 °F 9.8 °F 3.2 °F 48% 30.11 in 10.0 mi NW 9.2 mph - N/A   Clear
7:52 PM 19.9 °F 11.1 °F 3.2 °F 48% 30.11 in 10.0 mi NW 6.9 mph - N/A   Clear
8:12 PM 19.4 °F 10.4 °F 3.6 °F 50% 30.11 in 10.0 mi NW 6.9 mph - N/A   Clear
8:32 PM 19.2 °F 9.3 °F 3.4 °F 50% 30.11 in 10.0 mi NW 8.1 mph - N/A   Clear
8:52 PM 18.5 °F 8.4 °F 3.6 °F 52% 30.12 in 10.0 mi NW 8.1 mph - N/A   Clear
9:12 PM 18.5 °F 7.5 °F 3.2 °F 51% 30.12 in 10.0 mi NW 9.2 mph - N/A   Clear
9:32 PM 18.3 °F 8.2 °F 3.2 °F 52% 30.12 in 10.0 mi NW 8.1 mph - N/A   Clear
9:53 PM 17.6 °F 7.3 °F 3.0 °F 53% 30.11 in 10.0 mi NW 8.1 mph - N/A   Clear
10:12 PM 17.2 °F 6.0 °F 2.8 °F 53% 30.11 in 10.0 mi NW 9.2 mph - N/A   Clear
10:32 PM 16.0 °F 8.8 °F 3.9 °F 59% 30.12 in 10.0 mi West 4.6 mph - N/A   Clear
10:52 PM 15.4 °F 8.1 °F 4.1 °F 61% 30.12 in 10.0 mi WNW 4.6 mph - N/A   Clear
11:12 PM 14.9 °F 7.5 °F 3.6 °F 61% 30.12 in 10.0 mi WNW 4.6 mph - N/A   Clear
11:32 PM 14.5 °F 7.1 °F 3.4 °F 61% 30.12 in 10.0 mi West 4.6 mph - N/A   Clear
11:52 PM 14.0 °F 8.2 °F 3.0 °F 62% 30.12 in 10.0 mi WNW 3.5 mph - N/A   Clear